CAPE
1 1 1 1 2 0 0 0 1 1 1 0 0 0 0 0 0 0 0 0 0 0 0 0 0 0 0 0 168 199 96 46 1 0 15 146 204 72 71 11 2 7 17 40 24
0 0 1 1 0 0 0 0 0 0 1 1 1 0 0 0 0 0 0 0 0 0 0 0 0 0 0 0 67 228 52 73 78 15 36 183 146 120 38 24 4 1 37 23 75
2 1 1 1 1 0 0 0 0 0 0 0 0 0 0 0 0 0 0 0 0 0 0 0 0 0 0 0 97 285 145 288 277 6 96 50 125 70 44 10 0 0 24 31 33
1 1 1 1 0 0 0 0 0 0 0 0 0 0 0 0 0 0 0 0 0 0 0 0 0 0 0 0 95 194 246 358 411 217 168 133 150 8 124 39 17 0 15 3 7
0 0 0 0 0 0 0 0 0 0 0 0 0 0 0 0 0 0 0 0 0 0 0 0 0 0 0 9 123 275 442 296 190 118 19 0 16 153 157 81 10 15 12 0 0
0 0 0 0 0 0 0 0 0 0 0 0 0 0 0 0 0 0 0 0 0 0 0 0 0 0 0 16 51 226 229 199 130 90 25 19 86 166 111 56 2 15 10 0 0
0 0 0 0 0 0 0 0 0 0 0 0 0 0 0 0 0 0 0 0 0 0 0 0 0 0 0 12 171 413 200 91 33 94 60 3 73 126 35 75 14 12 0 14 12
0 0 0 0 0 0 0 0 0 0 0 0 0 0 0 0 0 0 0 0 0 0 0 0 0 0 0 83 260 84 78 40 82 43 47 63 74 99 57 66 15 15 3 28 18
0 0 0 0 0 0 0 0 0 0 0 0 0 0 0 0 0 0 0 0 0 0 0 0 0 0 0 0 0 13 65 19 25 5 14 37 67 93 97 54 33 24 12 12 16
0 0 0 0 0 0 0 0 0 0 0 0 0 0 0 0 0 0 0 0 0 0 0 0 0 0 0 0 0 1 64 30 1 18 25 17 29 7 49 99 58 36 30 22 27
0 0 0 0 0 0 0 0 0 0 0 0 0 0 0 0 0 0 0 0 0 0 0 0 0 0 0 0 0 139 165 32 44 34 13 4 0 0 3 49 87 55 10 34 18
0 0 0 0 0 0 0 0 0 0 0 0 0 0 0 0 0 0 0 0 0 0 0 0 0 0 0 2 46 46 105 31 50 25 13 3 1 0 7 17 83 98 65 28 34
0 0 0 0 0 0 0 0 0 0 0 0 0 0 0 0 0 0 0 0 0 0 0 0 0 0 0 0 0 16 48 18 39 35 15 5 1 2 4 16 27 53 113 65 44
0 0 0 0 0 0 0 0 0 0 0 0 0 0 0 0 0 0 0 0 0 0 0 0 0 0 0 0 3 108 35 59 78 11 9 1 1 3 1 20 12 21 50 75 59
0 0 0 0 0 0 0 0 0 0 0 0 0 0 0 0 0 0 0 0 0 0 0 0 0 0 0 0 79 94 4 72 30 0 0 5 2 0 1 20 13 10 38 58 25
0 0 0 0 0 0 0 0 0 0 24 4 0 0 0 0 0 0 0 0 0 0 0 0 0 0 0 7 143 291 293 97 45 0 0 2 4 5 8 0 1 4 16 33 29
0 0 0 0 0 0 0 0 0 16 0 3 0 0 5 7 0 0 0 0 0 0 0 0 0 0 0 100 114 93 65 22 19 0 6 9 16 63 9 1 2 2 5 43 16
0 0 0 0 0 0 0 0 11 10 1 0 0 5 10 0 0 1 0 0 0 0 0 0 0 0 0 0 72 82 52 1 10 13 13 0 16 21 0 0 0 1 2 81 78
0 0 0 0 0 0 0 0 11 0 0 0 22 1 0 1 11 0 0 0 0 0 0 0 0 0 0 0 3 40 19 0 64 10 3 0 1 0 3 28 0 0 26 80 86
0 0 0 0 0 0 0 2 0 0 0 0 10 13 17 7 0 10 10 13 19 8 0 0 0 0 0 0 0 0 0 20 151 35 2 11 7 0 17 48 76 0 20 89 133
0 0 0 0 0 0 0 10 0 0 0 0 0 1 2 13 0 25 23 9 0 1 0 0 0 0 10 0 0 0 0 0 8 59 17 6 61 0 49 102 66 62 20 46 92
0 0 0 0 0 0 0 0 0 0 0 0 0 0 0 2 8 5 14 6 0 0 0 0 0 0 0 0 0 0 0 0 0 0 15 32 1 134 20 146 54 64 95 31 92
0 0 0 0 0 0 0 0 0 0 0 0 0 0 0 0 0 0 5 1 0 0 0 0 0 0 0 3 13 5 4 0 0 0 0 0 0 95 183 94 0 38 235 97 76
0 0 0 0 0 0 0 0 0 0 0 0 0 0 0 4 29 5 11 2 0 0 0 0 0 0 0 0 0 1 0 0 0 0 0 0 63 60 68 9 34 276 368 219 145
0 0 1 1 1 0 0 0 0 0 0 0 0 0 0 0 15 39 16 0 4 1 0 0 0 0 0 0 0 0 0 0 22 15 1 20 168 173 102 163 503 781 472 245 245
0 0 0 5 0 0 0 0 0 0 0 0 0 0 0 0 0 0 0 0 5 1 0 0 0 4 0 0 0 0 5 9 92 29 64 268 474 539 489 535 472 503 872 342 392
0 0 1 2 0 0 0 0 0 0 0 0 0 0 0 0 0 0 0 0 8 1 0 0 4 22 18 9 1 30 0 2 42 39 42 354 337 96 4 4 104 291 283 154 412
CIN
-0 -0 -0 -0 -0 -0 -0 -0 -0 -0 -0 -0 -0 -0 -0 -0 -0 -0 -0 -0 -0 -0 -0 -0 -0 -0 -0 -0 -9 -29 -17 -15 -7 -0 -49 -60 -23 -57 -13 -55 -21 -25 -13 -17 -20
-0 -0 -0 -0 -0 -0 -0 -0 -0 -0 -0 -0 -0 -0 -0 -0 -0 -0 -0 -0 -0 -0 -0 -0 -0 -0 -0 -0 -11 -19 -27 -9 -61 -83 -55 -69 -29 -17 -39 -24 -28 -2 -13 -25 -38
-0 -0 -0 -0 -0 -0 -0 -0 -0 -0 -0 -0 -0 -0 -0 -0 -0 -0 -0 -0 -0 -0 -0 -0 -0 -0 -0 -0 -10 -15 -17 -11 -21 -75 -66 -106 -83 -24 -48 -26 -0 -0 -5 -10 -20
-0 -0 -0 -0 -0 -0 -0 -0 -0 -0 -0 -0 -0 -0 -0 -0 -0 -0 -0 -0 -0 -0 -0 -0 -0 -0 -0 -0 -16 -5 -24 -8 -4 -42 -26 -16 -51 -62 -26 -31 -28 -0 -3 -19 -13
-0 -0 -0 -0 -0 -0 -0 -0 -0 -0 -0 -0 -0 -0 -0 -0 -0 -0 -0 -0 -0 -0 -0 -0 -0 -0 -0 -5 -32 -14 -23 -16 -12 -12 -28 -0 -39 -38 -13 -20 -27 -33 -8 -0 -0
-0 -0 -0 -0 -0 -0 -0 -0 -0 -0 -0 -0 -0 -0 -0 -0 -0 -0 -0 -0 -0 -0 -0 -0 -0 -0 -0 -4 -17 -49 -52 -31 -19 -11 -25 -4 -39 -30 -23 -58 -33 -19 -12 -0 -0
-0 -0 -0 -0 -0 -0 -0 -0 -0 -0 -0 -0 -0 -0 -0 -0 -0 -0 -0 -0 -0 -0 -0 -0 -0 -0 -0 -3 -32 -29 -40 -29 -20 -16 -8 -108 -28 -17 -30 -4 -16 -11 -0 -8 -14
-0 -0 -0 -0 -0 -0 -0 -0 -0 -0 -0 -0 -0 -0 -0 -0 -0 -0 -0 -0 -0 -0 -0 -0 -0 -0 -0 -29 -36 -15 -10 -17 -9 -22 -30 -31 -7 -10 -24 -6 -7 -6 -3 -5 -8
-0 -0 -0 -0 -0 -0 -0 -0 -0 -0 -0 -0 -0 -0 -0 -0 -0 -0 -0 -0 -0 -0 -0 -0 -0 -0 -0 -0 -0 -31 -5 -32 -28 -52 -42 -57 -11 -25 -35 -3 -11 -7 -5 -8 -13
-0 -0 -0 -0 -0 -0 -0 -0 -0 -0 -0 -0 -0 -0 -0 -0 -0 -0 -0 -0 -0 -0 -0 -0 -0 -0 -0 -0 -0 -17 -11 -21 -7 -36 -2 -26 -38 -78 -88 -59 -9 -7 -7 -13 -14
-0 -0 -0 -0 -0 -0 -0 -0 -0 -0 -0 -0 -0 -0 -0 -0 -0 -0 -0 -0 -0 -0 -0 -0 -0 -0 -0 -0 -0 -7 -24 -22 -18 -7 -31 -8 -10 -0 -82 -99 -52 -8 -18 -14 -22
-0 -0 -0 -0 -0 -0 -0 -0 -0 -0 -0 -0 -0 -0 -0 -0 -0 -0 -0 -0 -0 -0 -0 -0 -0 -0 -0 -18 -28 -19 -24 -64 -17 -44 -17 -35 -23 -0 -65 -121 -92 -53 -24 -26 -35
-0 -0 -0 -0 -0 -0 -0 -0 -0 -0 -0 -0 -0 -0 -0 -0 -0 -0 -0 -0 -0 -0 -0 -0 -0 -0 -0 -0 -0 -40 -15 -34 -40 -58 -1 -37 -28 -33 -39 -162 -93 -58 -41 -33 -24
-0 -0 -0 -0 -0 -0 -0 -0 -0 -0 -0 -0 -0 -0 -0 -0 -0 -0 -0 -0 -0 -0 -0 -0 -0 -0 -0 -0 -10 -24 -115 -19 -58 -63 -0 -26 -6 -35 -13 -109 -77 -47 -53 -31 -40
-0 -0 -0 -0 -0 -0 -0 -0 -0 -0 -0 -0 -0 -0 -0 -0 -0 -0 -0 -0 -0 -0 -0 -0 -0 -0 -0 -0 -34 -90 -12 -22 -76 -0 -0 -12 -6 -0 -7 -34 -53 -66 -53 -47 -40
-0 -0 -0 -0 -0 -0 -0 -0 -0 -0 -6 -3 -0 -0 -0 -0 -1 -0 -0 -0 -0 -0 -0 -0 -0 -0 -0 -3 -45 -69 -48 -41 -52 -0 -0 -20 -21 -21 -72 -0 -67 -28 -65 -51 -45
-0 -0 -0 -0 -0 -0 -0 -0 -0 -15 -0 -5 -0 -0 -21 -34 -0 -0 -0 -0 -0 -0 -0 -0 -0 -0 -0 -77 -71 -66 -73 -12 -9 -1 -0 -21 -7 -14 -76 -57 -80 -50 -46 -70 -62
-0 -0 -0 -0 -0 -0 -0 -0 -20 -3 -4 -0 -0 -15 -18 -16 -0 -2 -0 -0 -0 -0 -0 -0 -0 -0 -0 -1 -36 -45 -43 -2 -5 -21 -43 -0 -0 -19 -0 -0 -13 -55 -50 -36 -42
-0 -0 -0 -0 -0 -0 -0 -0 -5 -0 -0 -0 -10 -7 -2 -6 -9 -0 -0 -0 -0 -0 -0 -0 -0 -0 -0 -0 -7 -19 -19 -0 -42 -116 -77 -0 -6 -0 -35 -114 -3 -5 -95 -56 -33
-0 -0 -0 -0 -0 -0 -0 -25 -0 -0 -0 -0 -5 -8 -23 -12 -0 -9 -7 -14 -3 -21 -0 -0 -0 -0 -0 -0 -0 -0 -0 -2 -18 -20 -46 -39 -36 -0 -20 -20 -48 -36 -64 -37 -59
-0 -0 -0 -0 -0 -0 -0 -16 -0 -0 -0 -0 -0 -2 -17 -20 -0 -6 -14 -32 -0 -12 -0 -0 -0 -0 -8 -1 -0 -0 -0 -0 -1 -18 -17 -19 -39 -0 -74 -58 -49 -51 -44 -66 -46
-0 -0 -0 -0 -0 -0 -0 -0 -0 -0 -0 -0 -0 -1 -0 -23 -21 -13 -47 -32 -0 -0 -0 -0 -0 -0 -0 -0 -0 -0 -0 -0 -0 -0 -19 -28 -3 -116 -164 -112 -51 -53 -88 -113 -99
-0 -0 -0 -0 -0 -0 -0 -0 -0 -0 -0 -0 -0 -0 -0 -0 -6 -13 -37 -44 -0 -0 -0 -0 -0 -0 -0 -32 -20 -17 -6 -3 -0 -0 -0 -0 -0 -179 -180 -151 -24 -53 -62 -92 -102
-0 -0 -0 -0 -0 -0 -0 -1 -0 -0 -0 -0 -0 -0 -0 -6 -6 -12 -26 -47 -0 -0 -0 -0 -0 -0 -0 -0 -0 -21 -12 -0 -7 -0 -0 -0 -29 -133 -199 -170 -139 -83 -84 -106 -100
-0 -0 -17 -7 -5 -0 -0 -0 -0 -0 -0 -0 -0 -0 -0 -0 -11 -12 -17 -0 -34 -12 -0 -0 -0 -0 -0 -0 -0 -0 -0 -0 -55 -101 -27 -7 -26 -92 -178 -169 -92 -55 -45 -95 -83
-0 -0 -0 -55 -0 -0 -0 -0 -0 -0 -0 -0 -0 -0 -0 -0 -0 -0 -0 -0 -29 -24 -0 -0 -0 -29 -0 -0 -0 -0 -54 -64 -43 -140 -116 -50 -71 -154 -168 -102 -107 -142 -119 -88 -71
-0 -0 -18 -14 -0 -0 -0 -0 -0 -0 -0 -0 -0 -0 -0 -0 -0 -0 -0 -0 -8 -0 -0 -0 -30 -15 -12 -25 -14 -12 -8 -51 -84 -155 -194 -38 -132 -227 -144 -188 -154 -142 -145 -15 -99
Wind_Speed
12 9 8 8 8 8 7 7 7 6 4 4 16 24 26 27 28 19 21 8 7 19 16 18 5 21 21 7 9 14 17 10 6 16 20 11 4 14 11 24 23 20 26 28 25
16 14 13 13 11 11 10 9 8 8 6 5 9 26 26 26 23 12 13 29 17 7 14 12 3 8 15 8 7 12 16 19 12 20 9 8 10 14 13 12 23 26 28 27 27
21 19 17 16 16 16 15 13 12 11 11 16 24 25 25 25 14 9 20 15 15 12 18 24 25 10 16 27 4 12 18 16 12 11 9 6 24 25 15 24 26 25 26 26 28
24 22 21 19 18 18 17 17 15 14 16 19 22 24 24 13 11 14 15 3 9 13 17 21 25 26 23 25 6 16 15 14 11 6 4 6 9 30 19 22 21 22 25 24 24
25 24 22 21 20 19 19 18 18 18 19 21 21 23 16 11 8 12 11 7 10 13 16 18 19 19 23 15 9 12 14 13 12 10 4 4 30 4 7 21 19 22 20 20 23
26 25 24 23 22 21 20 19 19 19 20 21 21 21 14 13 13 8 9 10 16 13 17 28 19 19 23 22 16 11 12 11 13 8 8 1 16 25 4 13 15 17 18 20 23
26 26 25 25 23 22 20 20 20 19 19 20 20 18 14 7 19 11 10 16 16 14 17 29 33 27 22 20 10 4 6 10 10 8 5 11 21 9 6 13 12 11 17 22 25
25 26 25 24 22 21 20 19 18 18 17 18 18 17 15 16 22 26 15 14 19 19 25 30 30 30 26 11 14 10 7 11 14 12 9 8 1 3 16 12 11 13 22 20 14
25 24 23 22 21 21 19 17 16 17 15 16 17 17 19 17 20 20 23 17 18 23 27 31 31 29 26 25 22 24 21 11 12 15 14 14 6 15 14 6 8 11 22 11 10
22 21 21 21 21 21 19 14 16 17 16 14 15 20 20 17 10 9 15 17 17 21 25 27 26 28 28 29 27 27 21 16 11 15 17 21 20 25 16 18 7 9 8 7 7
21 18 19 20 19 22 24 19 20 18 16 15 15 18 26 16 15 15 11 21 17 23 27 27 24 30 30 30 30 23 16 11 12 11 13 15 26 27 27 25 24 27 9 8 5
19 17 17 17 16 17 16 16 14 18 20 9 6 7 19 21 16 15 10 18 19 25 26 23 31 34 33 21 18 23 14 16 16 7 17 19 33 30 36 30 25 25 24 10 7
18 18 16 12 3 14 13 9 7 4 17 14 8 10 10 12 14 7 14 23 19 25 26 31 28 31 33 29 21 24 23 19 16 10 16 16 24 32 35 33 28 26 29 11 11
24 16 18 9 15 16 11 7 7 12 18 18 16 17 14 9 18 5 20 20 18 23 29 31 32 30 30 33 23 21 16 16 7 13 19 11 21 24 34 41 33 33 31 17 13
21 12 12 14 9 14 10 7 15 11 22 17 19 16 16 15 12 6 20 26 28 24 23 29 28 28 30 29 15 19 8 8 9 10 14 13 18 20 25 42 41 41 33 23 17
4 11 12 14 14 12 8 8 6 18 19 17 17 18 16 17 19 6 18 25 25 27 28 31 25 24 24 21 7 2 6 9 13 15 17 15 18 17 10 28 46 47 35 27 31
10 12 13 12 15 9 7 10 18 20 16 18 17 16 8 14 20 11 20 25 24 17 22 25 27 25 23 6 6 11 12 20 22 20 21 21 17 22 5 38 48 42 32 26 33
18 5 13 14 14 11 9 15 18 17 25 16 18 18 9 15 19 12 16 25 27 28 24 20 27 24 15 25 16 15 17 21 23 22 19 18 19 19 25 17 18 45 48 31 27
17 16 14 14 17 14 16 16 16 24 21 17 21 11 18 16 16 15 20 21 23 23 21 21 28 23 20 20 19 21 30 28 21 20 22 22 24 25 20 3 18 39 43 40 27
16 14 10 13 16 15 14 11 20 19 18 13 20 14 14 15 16 14 16 16 17 15 16 16 22 23 20 17 25 23 22 22 22 27 25 18 18 20 22 12 5 42 45 38 32
15 15 10 12 16 12 10 9 19 21 17 16 15 19 18 14 16 14 13 17 17 18 17 19 17 21 13 19 20 26 26 23 21 21 25 25 22 10 17 12 26 35 40 46 30
14 13 12 12 10 9 5 16 14 15 15 20 16 18 17 18 18 15 17 17 20 20 16 17 20 23 24 22 16 22 25 26 28 29 24 25 27 6 10 8 12 34 27 37 23
15 7 10 9 9 6 15 11 13 19 21 19 21 19 19 19 17 17 18 20 19 18 18 20 18 20 22 20 19 17 21 26 29 31 35 33 29 8 3 9 15 28 16 32 19
13 14 11 8 7 6 5 10 13 14 13 18 20 19 20 19 22 13 13 15 17 18 21 22 22 23 22 20 22 25 24 25 25 28 30 32 20 14 10 14 23 27 21 22 32
9 10 23 7 8 21 15 19 16 15 16 18 15 18 20 19 19 17 15 16 22 21 21 20 24 25 27 22 22 25 26 26 24 27 28 24 14 11 14 14 12 14 8 7 16
7 15 21 3 14 9 13 9 15 17 18 19 19 21 19 20 18 18 21 18 18 19 19 20 22 24 28 23 23 23 22 21 21 25 25 19 12 12 12 9 12 14 15 10 9
13 18 17 10 12 10 9 11 15 16 15 14 18 20 22 20 22 22 24 24 17 16 21 20 20 22 23 22 23 18 22 21 18 20 21 17 16 16 15 16 13 11 11 15 15
Wind_Direction
56 66 73 73 76 79 83 79 68 70 114 118 230 264 276 278 274 295 286 281 315 220 293 269 4 170 189 231 355 326 305 342 55 108 106 261 333 80 60 98 104 100 103 108 99
47 53 57 58 64 63 61 65 65 61 68 85 340 284 280 282 295 268 228 241 279 316 284 283 324 121 292 183 12 1 326 307 104 144 63 303 241 88 86 58 97 101 110 105 103
32 36 42 46 46 44 44 48 48 47 38 8 323 302 294 291 327 335 282 174 275 284 274 207 213 299 284 226 350 335 313 337 352 126 97 289 207 207 88 124 118 105 113 108 115
22 29 30 32 34 33 34 34 36 34 22 1 334 309 299 342 329 320 306 165 272 279 268 253 247 248 262 261 301 302 329 338 356 49 134 317 251 191 178 122 111 103 111 107 111
15 19 23 26 25 26 26 27 26 23 11 356 341 322 336 339 319 319 323 289 270 273 261 257 263 263 258 299 304 311 323 332 341 343 61 170 211 91 280 119 108 107 107 103 116
12 16 19 18 18 19 21 22 19 17 10 358 343 326 347 324 326 331 322 293 265 257 254 238 256 259 264 286 298 306 313 4 332 340 25 27 265 227 237 107 106 107 110 113 125
11 10 12 13 15 17 18 18 16 16 13 5 354 345 342 318 296 312 302 287 259 253 252 238 227 250 266 287 327 340 341 328 310 295 7 75 220 234 237 131 108 108 115 124 133
10 9 12 15 18 17 18 19 20 18 19 16 10 1 343 317 291 282 276 281 254 251 243 237 240 248 268 311 294 292 295 309 277 277 298 298 318 232 124 124 111 117 131 127 106
11 12 16 17 18 16 19 23 26 25 32 34 19 9 342 336 307 283 265 262 252 245 244 242 245 249 257 258 268 274 267 295 278 279 280 280 248 241 252 160 127 128 137 122 111
19 19 20 17 17 16 17 29 28 24 34 35 10 350 343 346 344 309 273 259 249 243 245 247 248 247 249 246 246 238 258 279 293 288 285 255 251 239 253 243 216 147 148 136 132
21 25 21 17 19 12 4 27 29 31 29 20 5 350 326 358 333 298 275 255 248 242 240 243 248 241 241 243 254 270 272 285 312 332 303 273 241 237 238 236 234 230 180 156 164
26 26 24 23 26 25 34 37 39 23 15 39 128 24 324 317 319 282 269 251 244 238 239 244 243 237 236 260 277 270 282 277 290 15 290 272 237 246 233 235 241 239 222 173 173
26 23 27 33 55 50 58 65 97 76 25 46 85 74 71 334 293 303 258 236 244 241 236 236 240 235 239 248 265 273 271 266 284 323 291 287 261 257 237 236 243 236 230 201 180
13 25 21 262 48 47 59 110 105 58 38 42 54 62 78 54 266 293 237 235 247 244 237 238 238 241 243 247 258 265 298 268 300 296 280 315 270 259 234 230 235 231 235 223 217
16 27 33 47 77 58 95 231 52 71 34 65 55 87 121 106 270 296 239 234 239 243 243 236 240 246 244 247 262 258 5 321 280 305 319 296 284 273 244 230 232 224 231 235 222
339 38 51 70 88 125 167 208 99 54 47 55 82 93 112 191 210 343 242 234 248 253 247 240 252 251 258 258 249 159 289 328 292 290 302 299 278 275 268 183 202 228 232 236 230
280 50 70 106 83 139 163 98 57 57 67 61 74 101 197 251 214 307 238 227 233 249 246 246 246 260 251 255 237 265 264 271 261 267 287 292 276 269 184 224 200 210 226 238 230
283 122 87 124 145 154 128 70 66 58 40 78 82 77 303 125 207 253 248 223 224 233 246 254 245 253 263 247 249 259 268 262 258 262 277 264 275 277 281 169 189 216 215 230 229
280 56 75 128 148 126 70 67 63 12 27 58 15 61 353 239 236 248 224 220 233 238 264 266 250 263 262 258 259 265 260 269 267 272 272 301 287 267 319 82 162 216 219 227 233
37 56 129 151 124 99 71 81 34 36 24 263 34 66 355 242 278 266 274 267 260 293 292 284 267 267 254 257 262 270 281 266 263 258 268 292 317 275 267 272 206 187 211 229 232
46 49 127 97 107 83 71 92 44 37 30 54 39 0 310 299 296 302 299 279 304 288 290 279 279 277 247 260 269 261 264 275 284 272 264 265 279 73 148 139 229 212 195 200 234
40 56 105 65 83 82 96 39 55 60 39 353 16 346 341 300 315 305 279 288 303 306 290 289 270 272 269 276 283 271 267 271 270 267 284 282 270 89 140 128 153 227 178 187 180
30 72 187 69 48 68 54 59 49 9 344 323 326 312 303 306 322 336 296 283 299 312 297 292 277 277 279 287 293 278 283 280 279 275 268 271 282 311 100 299 125 174 155 177 174
34 47 65 84 110 126 77 56 42 39 57 354 309 286 290 311 302 329 323 304 306 312 307 288 273 271 280 283 285 275 284 290 292 278 275 270 285 272 282 283 225 213 168 158 171
48 55 342 36 47 359 7 345 359 6 20 5 17 335 326 320 323 309 346 319 302 315 313 296 271 274 277 291 294 282 281 286 298 298 280 284 289 268 269 278 305 303 263 175 166
22 2 346 82 18 20 24 49 353 360 352 337 342 327 337 326 336 326 310 336 338 316 316 306 283 287 274 293 292 293 295 297 313 309 289 295 282 273 281 299 296 297 296 265 235
351 337 343 11 12 37 36 25 359 339 360 6 339 329 330 327 310 311 298 275 332 340 320 301 296 290 277 293 291 288 304 304 310 317 309 289 288 281 278 284 289 305 317 296 254